EJU2780 LIML-EHAM

Flight info

Callsign EJU2780
Flight time 1h 19m
Altitude 34000
Route ARLES DCT PUNSA DCT VADEM DCT GILIR DCT PENDU DCT IXILU DCT EPL DCT ROUSY DCT KOMOB DCT BUB Y28 HELEN
Aircraft A320/M-SDE3FGHIRWY/LB1

Departure

Time 2026-05-05 09:27
Airport Milano Linate Airport (LIML)

Arrival

Time 2026-05-05 10:46
Airport Amsterdam Airport Schiphol (EHAM)
Time Latitude Longitude Altitude Speed Heading
2026-05-05 09:00 45.45674 9.28073 360 ft 0 kts 90°
2026-05-05 09:19 45.45674 9.28088 360 ft 3 kts 90°
2026-05-05 09:20 45.45671 9.28129 360 ft 7 kts 111°
2026-05-05 09:20 45.45630 9.28157 362 ft 9 kts 175°
2026-05-05 09:20 45.45554 9.28158 360 ft 14 kts 181°
2026-05-05 09:20 45.45427 9.28151 363 ft 13 kts 183°
2026-05-05 09:21 45.45370 9.28145 360 ft 12 kts 191°
2026-05-05 09:21 45.45302 9.28102 365 ft 10 kts 207°
2026-05-05 09:21 45.45245 9.28061 360 ft 9 kts 205°
2026-05-05 09:21 45.45179 9.28050 362 ft 9 kts 178°
2026-05-05 09:22 45.45113 9.28056 360 ft 13 kts 176°
2026-05-05 09:22 45.45014 9.28067 364 ft 14 kts 175°
2026-05-05 09:22 45.44946 9.28004 364 ft 12 kts 251°
2026-05-05 09:22 45.44896 9.27928 360 ft 13 kts 184°
2026-05-05 09:23 45.44795 9.27944 367 ft 17 kts 175°
2026-05-05 09:23 45.44669 9.27957 360 ft 19 kts 176°
2026-05-05 09:23 45.44530 9.27972 360 ft 21 kts 175°
2026-05-05 09:23 45.44377 9.27989 362 ft 23 kts 175°
2026-05-05 09:24 45.44213 9.28008 360 ft 25 kts 175°
2026-05-05 09:24 45.44036 9.28028 364 ft 26 kts 176°
2026-05-05 09:24 45.43849 9.28048 361 ft 28 kts 175°
2026-05-05 09:24 45.43658 9.28068 366 ft 25 kts 176°
2026-05-05 09:25 45.43524 9.28084 367 ft 15 kts 174°
2026-05-05 09:25 45.43449 9.28024 361 ft 12 kts 251°
2026-05-05 09:25 45.43441 9.27913 361 ft 10 kts 265°
2026-05-05 09:25 45.43461 9.27838 364 ft 10 kts 315°
2026-05-05 09:26 45.43549 9.27809 361 ft 15 kts 355°
2026-05-05 09:26 45.43766 9.27782 361 ft 65 kts 355°
2026-05-05 09:26 45.44460 9.27711 361 ft 131 kts 355°
2026-05-05 09:26 45.45497 9.27591 668 ft 152 kts 355°
2026-05-05 09:27 45.46540 9.27469 1440 ft 149 kts 357°
2026-05-05 09:27 45.47562 9.27333 2052 ft 150 kts 353°
2026-05-05 09:27 45.48592 9.26653 2307 ft 179 kts 318°
2026-05-05 09:27 45.49439 9.25198 2641 ft 203 kts 306°
2026-05-05 09:28 45.50279 9.23427 2969 ft 228 kts 304°
2026-05-05 09:28 45.51201 9.21435 3428 ft 253 kts 304°
2026-05-05 09:28 45.52223 9.19263 3972 ft 273 kts 305°
2026-05-05 09:28 45.53312 9.17000 4788 ft 281 kts 306°
2026-05-05 09:29 45.54449 9.14683 5676 ft 287 kts 306°
2026-05-05 09:29 45.55612 9.12343 6600 ft 292 kts 306°
2026-05-05 09:29 45.56797 9.09979 7566 ft 294 kts 305°
2026-05-05 09:29 45.57989 9.07618 8548 ft 294 kts 304°
2026-05-05 09:30 45.59188 9.05247 9534 ft 295 kts 302°
2026-05-05 09:30 45.60393 9.02860 10331 ft 302 kts 302°
2026-05-05 09:30 45.61671 9.00318 10623 ft 326 kts 302°
2026-05-05 09:30 45.63020 8.97633 11180 ft 337 kts 302°
2026-05-05 09:31 45.64397 8.94895 11952 ft 341 kts 302°
2026-05-05 09:31 45.65771 8.92159 12759 ft 345 kts 302°
2026-05-05 09:31 45.67177 8.89360 13579 ft 348 kts 302°
2026-05-05 09:31 45.68610 8.86508 14320 ft 351 kts 302°
2026-05-05 09:32 45.70043 8.83647 14987 ft 355 kts 302°
2026-05-05 09:32 45.71491 8.80755 15640 ft 360 kts 302°
2026-05-05 09:32 45.72933 8.77869 16284 ft 364 kts 302°
2026-05-05 09:32 45.74415 8.74899 16934 ft 368 kts 302°
2026-05-05 09:33 45.75913 8.71897 17587 ft 373 kts 302°
2026-05-05 09:33 45.77426 8.68860 18221 ft 377 kts 302°
2026-05-05 09:33 45.78957 8.65781 18768 ft 381 kts 301°
2026-05-05 09:33 45.80499 8.62670 19332 ft 385 kts 301°
2026-05-05 09:34 45.82059 8.59528 19887 ft 389 kts 301°
2026-05-05 09:34 45.83636 8.56351 20439 ft 393 kts 301°
2026-05-05 09:34 45.85227 8.53145 21003 ft 397 kts 301°
2026-05-05 09:34 45.86835 8.49901 21552 ft 401 kts 301°
2026-05-05 09:35 45.88451 8.46631 22100 ft 405 kts 301°
2026-05-05 09:35 45.91731 8.39960 23162 ft 413 kts 301°
2026-05-05 09:35 45.93385 8.36567 23697 ft 416 kts 300°
2026-05-05 09:36 45.94979 8.33080 24161 ft 418 kts 297°
2026-05-05 09:36 45.96511 8.29522 24616 ft 420 kts 297°
2026-05-05 09:36 45.98018 8.25911 25071 ft 422 kts 296°
2026-05-05 09:36 45.99528 8.22266 25514 ft 425 kts 296°
2026-05-05 09:37 46.01055 8.18599 25906 ft 428 kts 296°
2026-05-05 09:37 46.02582 8.14964 26331 ft 431 kts 297°
2026-05-05 09:37 46.04149 8.11268 26703 ft 433 kts 297°
2026-05-05 09:37 46.05728 8.07560 27078 ft 436 kts 297°
2026-05-05 09:38 46.07322 8.03825 27486 ft 439 kts 297°
2026-05-05 09:38 46.08928 8.00066 27860 ft 441 kts 297°
2026-05-05 09:38 46.10544 7.96297 28211 ft 444 kts 297°
2026-05-05 09:38 46.12171 7.92505 28567 ft 446 kts 297°
2026-05-05 09:39 46.13807 7.88688 28893 ft 449 kts 297°
2026-05-05 09:39 46.15454 7.84836 29228 ft 452 kts 297°
2026-05-05 09:39 46.17104 7.80969 29550 ft 453 kts 297°
2026-05-05 09:39 46.18737 7.77126 29856 ft 455 kts 297°
2026-05-05 09:40 46.20391 7.73218 30131 ft 458 kts 297°
2026-05-05 09:40 46.22054 7.69282 30405 ft 459 kts 297°
2026-05-05 09:40 46.23720 7.65345 30663 ft 461 kts 297°
2026-05-05 09:40 46.25401 7.61382 30941 ft 462 kts 297°
2026-05-05 09:41 46.27081 7.57408 31219 ft 464 kts 297°
2026-05-05 09:41 46.28759 7.53426 31498 ft 465 kts 297°
2026-05-05 09:41 46.30439 7.49434 31886 ft 463 kts 297°
2026-05-05 09:41 46.32109 7.45459 32308 ft 461 kts 297°
2026-05-05 09:42 46.33769 7.41502 32696 ft 459 kts 297°
2026-05-05 09:42 46.35424 7.37556 33106 ft 458 kts 296°
2026-05-05 09:42 46.37074 7.33623 33497 ft 456 kts 296°
2026-05-05 09:42 46.38714 7.29699 33832 ft 455 kts 296°
2026-05-05 09:43 46.41948 7.21947 33920 ft 444 kts 296°
2026-05-05 09:43 46.45119 7.14320 33911 ft 441 kts 296°
2026-05-05 09:44 46.48273 7.06700 33909 ft 441 kts 296°
2026-05-05 09:44 46.51408 6.99122 33908 ft 441 kts 296°
2026-05-05 09:45 46.54563 6.91472 33917 ft 441 kts 296°
2026-05-05 09:45 46.57713 6.83809 33909 ft 441 kts 296°
2026-05-05 09:46 46.61695 6.76974 33905 ft 454 kts 322°
2026-05-05 09:46 46.64505 6.74930 33905 ft 461 kts 340°
2026-05-05 09:46 46.67592 6.73648 33901 ft 462 kts 342°
2026-05-05 09:47 46.73817 6.71182 33898 ft 464 kts 342°
2026-05-05 09:47 46.80054 6.68715 33897 ft 465 kts 342°
2026-05-05 09:48 46.86288 6.66213 33905 ft 465 kts 342°
2026-05-05 09:48 46.92539 6.63682 33900 ft 465 kts 342°
2026-05-05 09:49 46.98783 6.61166 33899 ft 465 kts 342°
2026-05-05 09:49 47.04989 6.58661 33901 ft 466 kts 342°
2026-05-05 09:50 47.11238 6.56128 33899 ft 466 kts 343°
2026-05-05 09:50 47.17500 6.53575 33897 ft 467 kts 343°
2026-05-05 09:51 47.23765 6.51011 33888 ft 467 kts 343°
2026-05-05 09:51 47.30031 6.48443 33871 ft 468 kts 343°
2026-05-05 09:52 47.36310 6.45877 33872 ft 468 kts 343°
2026-05-05 09:52 47.42595 6.43294 33874 ft 469 kts 343°
2026-05-05 09:53 47.48885 6.40704 33874 ft 469 kts 343°
2026-05-05 09:53 47.55185 6.38106 33867 ft 470 kts 343°
2026-05-05 09:54 47.61434 6.35516 33867 ft 470 kts 342°
2026-05-05 09:54 47.67738 6.32900 33859 ft 471 kts 342°
2026-05-05 09:55 47.74076 6.30264 33860 ft 471 kts 342°
2026-05-05 09:55 47.80399 6.27632 33854 ft 472 kts 342°
2026-05-05 09:56 47.86730 6.24991 33858 ft 472 kts 342°
2026-05-05 09:56 47.93027 6.22356 33858 ft 473 kts 342°
2026-05-05 09:57 47.99358 6.19692 33865 ft 473 kts 342°
2026-05-05 09:57 48.05704 6.17015 33867 ft 474 kts 342°
2026-05-05 09:58 48.11551 6.14540 33872 ft 474 kts 342°
2026-05-05 09:58 48.15807 6.12730 33875 ft 474 kts 342°
2026-05-05 09:59 48.22113 6.10081 33877 ft 474 kts 342°
2026-05-05 09:59 48.28469 6.07372 33878 ft 475 kts 343°
2026-05-05 10:00 48.35011 6.06083 33878 ft 477 kts
2026-05-05 10:00 48.41646 6.06413 33872 ft 477 kts
2026-05-05 10:01 48.48243 6.06735 33861 ft 477 kts
2026-05-05 10:01 48.54889 6.07041 33863 ft 478 kts
2026-05-05 10:02 48.61541 6.07352 33878 ft 479 kts
2026-05-05 10:02 48.68203 6.07657 33878 ft 479 kts
2026-05-05 10:03 48.74864 6.07971 33881 ft 479 kts
2026-05-05 10:03 48.81482 6.08289 33879 ft 479 kts
2026-05-05 10:04 48.88144 6.08623 33881 ft 479 kts
2026-05-05 10:04 48.94804 6.08947 33885 ft 478 kts
2026-05-05 10:05 49.01461 6.09260 33886 ft 478 kts
2026-05-05 10:05 49.08111 6.09575 33887 ft 478 kts
2026-05-05 10:06 49.14759 6.09896 33886 ft 478 kts
2026-05-05 10:06 49.21402 6.10231 33883 ft 477 kts
2026-05-05 10:07 49.28030 6.10555 33888 ft 477 kts
2026-05-05 10:07 49.34660 6.10862 33880 ft 476 kts
2026-05-05 10:08 49.41232 6.11157 33880 ft 475 kts 357°
2026-05-05 10:08 49.47674 6.09576 33876 ft 466 kts 338°
2026-05-05 10:09 49.53395 6.05229 33874 ft 454 kts 320°
2026-05-05 10:09 49.58535 5.99585 33875 ft 453 kts 319°
2026-05-05 10:10 49.63669 5.93947 33877 ft 453 kts 319°
2026-05-05 10:10 49.68795 5.88293 33879 ft 452 kts 319°
2026-05-05 10:11 49.73910 5.82641 33880 ft 452 kts 319°
2026-05-05 10:11 49.78988 5.77016 33883 ft 452 kts 319°
2026-05-05 10:12 49.84090 5.71345 33873 ft 451 kts 319°
2026-05-05 10:12 49.89184 5.65670 33877 ft 452 kts 319°
2026-05-05 10:13 49.93430 5.60930 33872 ft 452 kts 319°
2026-05-05 10:13 49.98538 5.55212 33864 ft 452 kts 319°
2026-05-05 10:14 50.03633 5.49493 33861 ft 452 kts 319°
2026-05-05 10:14 50.08731 5.43756 33871 ft 452 kts 319°
2026-05-05 10:15 50.13826 5.38008 33870 ft 452 kts 319°
2026-05-05 10:15 50.18956 5.32320 33869 ft 453 kts 320°
2026-05-05 10:16 50.24159 5.26735 33879 ft 454 kts 321°
2026-05-05 10:16 50.29355 5.21162 33879 ft 454 kts 320°
2026-05-05 10:17 50.34549 5.15515 33879 ft 454 kts 320°
2026-05-05 10:17 50.39694 5.09880 33884 ft 454 kts 320°
2026-05-05 10:18 50.44876 5.04200 33887 ft 454 kts 320°
2026-05-05 10:18 50.50049 4.98518 33895 ft 454 kts 320°
2026-05-05 10:19 50.55222 4.92816 33902 ft 453 kts 320°
2026-05-05 10:19 50.60380 4.87113 33559 ft 453 kts 320°
2026-05-05 10:20 50.62959 4.84256 33286 ft 453 kts 320°
2026-05-05 10:20 50.65537 4.81398 33021 ft 452 kts 320°
2026-05-05 10:20 50.68104 4.78552 32749 ft 450 kts 320°
2026-05-05 10:20 50.70654 4.75722 32483 ft 447 kts 321°
2026-05-05 10:21 50.73192 4.72901 32220 ft 445 kts 321°
2026-05-05 10:21 50.75680 4.70128 31962 ft 442 kts 321°
2026-05-05 10:21 50.78185 4.67331 31704 ft 439 kts 321°
2026-05-05 10:21 50.80669 4.64550 31450 ft 437 kts 321°
2026-05-05 10:22 50.83139 4.61783 31198 ft 434 kts 321°
2026-05-05 10:22 50.85592 4.59033 30948 ft 431 kts 321°
2026-05-05 10:22 50.87991 4.56225 30694 ft 426 kts 316°
2026-05-05 10:22 50.90115 4.53009 30446 ft 419 kts 308°
2026-05-05 10:23 50.91907 4.49416 30202 ft 413 kts 301°
2026-05-05 10:23 50.93421 4.45570 29955 ft 410 kts 298°
2026-05-05 10:23 50.94905 4.41719 29669 ft 408 kts 298°
2026-05-05 10:23 50.96379 4.37902 29383 ft 406 kts 298°
2026-05-05 10:24 50.97857 4.34076 29100 ft 405 kts 298°
2026-05-05 10:24 50.99325 4.30274 28816 ft 403 kts 299°
2026-05-05 10:24 51.00786 4.26489 28543 ft 401 kts 299°
2026-05-05 10:24 51.02238 4.22717 28277 ft 400 kts 299°
2026-05-05 10:25 51.03681 4.18954 28008 ft 398 kts 298°
2026-05-05 10:25 51.05116 4.15191 27744 ft 397 kts 298°
2026-05-05 10:25 51.06542 4.11443 27483 ft 396 kts 298°
2026-05-05 10:25 51.07966 4.07700 27214 ft 395 kts 299°
2026-05-05 10:26 51.09584 4.04167 26939 ft 394 kts 309°
2026-05-05 10:26 51.11551 4.01152 26502 ft 392 kts 320°
2026-05-05 10:26 51.13736 3.98561 26037 ft 390 kts 322°
2026-05-05 10:26 51.15909 3.96007 25571 ft 387 kts 321°
2026-05-05 10:27 51.18070 3.93457 25103 ft 385 kts 321°
2026-05-05 10:27 51.20215 3.90926 24639 ft 383 kts 323°
2026-05-05 10:27 51.22489 3.88826 24170 ft 383 kts 334°
2026-05-05 10:27 51.25002 3.87451 23689 ft 383 kts 346°
2026-05-05 10:28 51.27637 3.86873 23110 ft 382 kts 358°
2026-05-05 10:28 51.30296 3.86815 22593 ft 381 kts 359°
2026-05-05 10:28 51.32937 3.86762 22082 ft 379 kts 359°
2026-05-05 10:28 51.35568 3.86702 21573 ft 376 kts 359°
2026-05-05 10:29 51.38173 3.86638 21064 ft 373 kts 359°
2026-05-05 10:29 51.40772 3.86577 20562 ft 373 kts 359°
2026-05-05 10:29 51.43365 3.86520 20054 ft 373 kts 359°
2026-05-05 10:29 51.45959 3.86461 19543 ft 372 kts 359°
2026-05-05 10:30 51.48550 3.86396 19046 ft 372 kts 359°
2026-05-05 10:30 51.51129 3.86330 18546 ft 372 kts 359°
2026-05-05 10:30 51.53705 3.86267 18009 ft 364 kts 359°
2026-05-05 10:30 51.56206 3.86207 17515 ft 358 kts 359°
2026-05-05 10:31 51.58686 3.86149 17161 ft 353 kts 359°
2026-05-05 10:31 51.61121 3.86089 16842 ft 347 kts 359°
2026-05-05 10:31 51.63513 3.86030 16211 ft 341 kts 359°
2026-05-05 10:31 51.65867 3.85971 15505 ft 336 kts 359°
2026-05-05 10:32 51.68192 3.85911 14836 ft 331 kts 359°
2026-05-05 10:32 51.70449 3.86160 14323 ft 329 kts 11°
2026-05-05 10:32 51.72612 3.87250 14003 ft 324 kts 25°
2026-05-05 10:32 51.74534 3.89106 13649 ft 321 kts 38°
2026-05-05 10:33 51.76211 3.91472 13238 ft 319 kts 42°
2026-05-05 10:33 51.77857 3.93847 12819 ft 315 kts 41°
2026-05-05 10:33 51.79488 3.96199 12261 ft 314 kts 41°
2026-05-05 10:33 51.81111 3.98542 11881 ft 311 kts 41°
2026-05-05 10:34 51.82719 4.00867 11494 ft 309 kts 41°
2026-05-05 10:34 51.84319 4.03178 11105 ft 307 kts 41°
2026-05-05 10:34 51.85908 4.05473 10709 ft 305 kts 41°
2026-05-05 10:34 51.87485 4.07755 10325 ft 303 kts 41°
2026-05-05 10:35 51.89053 4.10033 9972 ft 300 kts 41°
2026-05-05 10:35 51.90577 4.12247 9824 ft 290 kts 41°
2026-05-05 10:35 51.92069 4.14401 9495 ft 284 kts 40°
2026-05-05 10:35 51.93553 4.16472 8825 ft 280 kts 40°
2026-05-05 10:36 51.95017 4.18477 8150 ft 278 kts 39°
2026-05-05 10:36 51.96491 4.20488 7471 ft 276 kts 39°
2026-05-05 10:36 51.97956 4.22491 6884 ft 276 kts 40°
2026-05-05 10:36 51.99413 4.24492 6520 ft 274 kts 40°
2026-05-05 10:37 52.00862 4.26490 6123 ft 272 kts 40°
2026-05-05 10:37 52.02293 4.28471 5732 ft 269 kts 40°
2026-05-05 10:37 52.03706 4.30429 5353 ft 265 kts 40°
2026-05-05 10:37 52.05091 4.32355 5080 ft 258 kts 40°
2026-05-05 10:38 52.06404 4.34184 4951 ft 238 kts 40°
2026-05-05 10:38 52.07609 4.35859 4807 ft 219 kts 39°
2026-05-05 10:38 52.08739 4.37429 4483 ft 209 kts 39°
2026-05-05 10:38 52.09835 4.38953 4051 ft 206 kts 40°
2026-05-05 10:39 52.10918 4.40459 3636 ft 204 kts 40°
2026-05-05 10:39 52.11989 4.41953 3309 ft 202 kts 40°
2026-05-05 10:39 52.13048 4.43429 3026 ft 199 kts 40°
2026-05-05 10:39 52.14098 4.44894 2705 ft 199 kts 41°
2026-05-05 10:40 52.15149 4.46359 2397 ft 198 kts 42°
2026-05-05 10:40 52.16170 4.47782 2222 ft 192 kts 41°
2026-05-05 10:40 52.17152 4.49159 2262 ft 181 kts 41°
2026-05-05 10:40 52.18100 4.50487 2288 ft 179 kts 42°
2026-05-05 10:41 52.19041 4.51806 2294 ft 178 kts 41°
2026-05-05 10:41 52.19983 4.53126 2295 ft 178 kts 42°
2026-05-05 10:41 52.20920 4.54438 2312 ft 175 kts 42°
2026-05-05 10:41 52.21783 4.55655 2318 ft 158 kts 45°
2026-05-05 10:42 52.22942 4.58316 2190 ft 136 kts 57°
2026-05-05 10:42 52.23449 4.59598 2053 ft 132 kts 57°
2026-05-05 10:42 52.23940 4.60854 1895 ft 132 kts 58°
2026-05-05 10:43 52.24428 4.62107 1761 ft 130 kts 56°
2026-05-05 10:43 52.24904 4.63336 1558 ft 129 kts 56°
2026-05-05 10:43 52.25375 4.64552 1387 ft 127 kts 56°
2026-05-05 10:43 52.25847 4.65775 1214 ft 127 kts 56°
2026-05-05 10:44 52.26321 4.67002 1038 ft 128 kts 55°
2026-05-05 10:44 52.26794 4.68229 845 ft 128 kts 56°
2026-05-05 10:44 52.27267 4.69455 661 ft 127 kts 54°
2026-05-05 10:44 52.27739 4.70681 483 ft 126 kts 56°
2026-05-05 10:45 52.28211 4.71907 297 ft 129 kts 56°
2026-05-05 10:45 52.28683 4.73117 98 ft 123 kts 56°
2026-05-05 10:45 52.29139 4.74312 5 ft 118 kts 56°
2026-05-05 10:45 52.29497 4.75241 -2 ft 72 kts 58°
2026-05-05 10:46 52.29664 4.75676 -2 ft 26 kts 50°
2026-05-05 10:46 52.29801 4.75821 -1 ft 19 kts 27°
2026-05-05 10:46 52.29913 4.75917 -1 ft 16 kts 27°
2026-05-05 10:46 52.30004 4.76024 -1 ft 17 kts 53°
2026-05-05 10:47 52.30070 4.76191 -1 ft 18 kts 57°
2026-05-05 10:47 52.30139 4.76374 -1 ft 15 kts 55°
2026-05-05 10:47 52.30198 4.76528 -1 ft 18 kts 58°
2026-05-05 10:47 52.30277 4.76731 -1 ft 22 kts 57°
2026-05-05 10:48 52.30363 4.76951 -1 ft 24 kts 58°
2026-05-05 10:48 52.30450 4.77183 -1 ft 24 kts 58°
2026-05-05 10:48 52.30535 4.77405 -1 ft 20 kts 58°
2026-05-05 10:48 52.30613 4.77563 -1 ft 18 kts 33°
2026-05-05 10:49 52.30737 4.77596 -1 ft 19 kts
2026-05-05 10:49 52.30874 4.77609 -1 ft 21 kts
2026-05-05 10:49 52.31022 4.77621 -1 ft 22 kts
2026-05-05 10:49 52.31177 4.77633 -1 ft 23 kts
2026-05-05 10:50 52.31339 4.77651 -1 ft 24 kts
2026-05-05 10:50 52.31480 4.77605 -1 ft 18 kts 318°
2026-05-05 10:50 52.31558 4.77484 -1 ft 14 kts 310°
2026-05-05 10:50 52.31577 4.77339 -1 ft 14 kts 267°
2026-05-05 10:51 52.31569 4.77127 -1 ft 21 kts 267°
2026-05-05 10:51 52.31562 4.76898 -1 ft 19 kts 267°
2026-05-05 10:51 52.31555 4.76686 -1 ft 18 kts 266°
2026-05-05 10:51 52.31547 4.76493 -1 ft 17 kts 266°
2026-05-05 10:52 52.31540 4.76311 -1 ft 16 kts 266°
2026-05-05 10:52 52.31534 4.76118 -1 ft 21 kts 267°
2026-05-05 10:52 52.31526 4.75877 -1 ft 21 kts 266°
2026-05-05 10:52 52.31518 4.75646 -1 ft 20 kts 266°
2026-05-05 10:53 52.31508 4.75478 -1 ft 10 kts 248°
2026-05-05 10:53 52.31453 4.75438 -1 ft 10 kts 178°
2026-05-05 10:53 52.31362 4.75446 -1 ft 14 kts 177°
2026-05-05 10:53 52.31270 4.75454 -1 ft 13 kts 177°
2026-05-05 10:54 52.31179 4.75464 -1 ft 13 kts 176°
2026-05-05 10:54 52.31113 4.75402 -1 ft 11 kts 235°
2026-05-05 10:54 52.31072 4.75343 -1 ft 6 kts 167°
2026-05-05 10:54 52.31036 4.75377 -1 ft 6 kts 148°
2026-05-05 10:55 52.31019 4.75395 -1 ft 0 kts 147°